Wind_Speed
20 20 20 20 20 13 12 11 10 9 8 7 7 7 7 7 7 6 6 6 6 5 5 4 4 3 3 4 4 3 3 3 3 4 5 6 7 8 8 8 9 9 9 10 11 11 11 11 12
20 19 22 22 14 12 12 12 11 10 10 9 9 8 8 7 7 7 7 6 6 6 5 4 4 4 3 3 4 3 3 3 3 3 5 6 7 7 8 8 8 8 8 10 10 10 10 10 11
20 22 25 16 12 13 13 13 12 12 11 10 10 10 9 9 8 8 8 7 6 6 5 5 5 4 4 3 3 3 3 3 3 4 5 6 7 7 7 7 6 7 9 10 10 9 10 10 9
22 27 21 13 14 15 14 14 13 12 12 11 11 10 10 10 9 9 9 7 7 6 6 5 5 4 4 3 3 3 3 3 4 4 5 6 6 6 7 7 7 8 9 9 9 9 10 10 9
25 23 15 14 15 15 15 15 14 13 13 13 12 12 12 11 11 10 9 9 8 7 7 6 5 5 4 3 3 3 3 4 4 3 4 5 6 6 7 7 8 8 9 9 9 9 10 10 9
25 16 12 13 15 15 15 15 14 14 14 13 14 14 13 13 12 12 11 10 10 8 7 6 6 5 4 3 3 3 3 3 4 4 4 4 6 6 7 7 7 7 8 8 9 9 9 9 9
18 13 12 14 14 14 15 14 14 14 14 15 15 14 14 14 13 12 12 11 11 10 9 7 6 5 4 4 3 3 3 3 3 4 4 5 6 6 7 7 7 7 7 7 8 8 8 8 7
14 12 11 12 14 14 14 15 15 15 15 15 15 15 15 14 14 13 12 12 11 11 10 9 7 6 4 4 3 2 2 3 3 3 3 4 5 5 6 6 6 6 6 6 6 6 7 6 6
10 10 10 12 13 14 16 16 15 16 16 16 16 16 15 15 14 13 12 12 11 11 10 9 8 6 5 4 3 2 2 2 3 3 3 3 4 4 5 5 5 5 5 5 5 6 6 5 5
9 9 10 12 13 14 16 16 16 17 17 17 16 16 15 14 14 13 13 12 11 11 10 9 8 7 6 5 4 3 2 2 2 2 3 3 3 4 4 4 5 5 5 5 5 4 4 4 4
8 10 12 13 14 15 16 18 18 17 17 17 17 16 16 15 14 14 13 12 12 11 11 11 9 8 6 5 4 3 2 2 2 2 2 3 3 3 4 4 4 5 4 4 4 4 3 2 3
8 10 12 13 15 16 17 18 18 18 17 17 17 17 16 16 15 14 13 13 12 12 12 11 11 9 7 6 5 4 2 2 2 1 1 2 2 3 3 3 4 4 3 3 3 3 2 2 2
7 10 12 14 15 15 16 17 18 18 18 17 17 17 17 17 16 14 14 13 13 12 12 11 11 10 9 8 7 5 3 3 2 2 1 1 2 3 3 3 2 2 2 2 2 3 2 2 1
6 8 11 13 15 16 15 17 18 18 18 18 18 18 18 18 17 15 14 13 12 12 12 11 11 11 10 9 8 7 6 5 4 3 2 2 2 2 2 2 1 1 2 2 2 2 2 1 1
4 5 9 12 14 14 15 17 17 17 18 18 19 19 19 18 18 16 15 13 12 12 11 11 11 10 10 10 10 8 7 6 5 4 3 2 2 1 1 1 0 1 1 2 2 2 2 2 2
3 6 8 9 10 13 15 17 17 17 17 18 18 19 19 18 18 17 15 14 13 12 12 11 11 10 10 10 9 9 8 7 6 6 5 4 2 1 1 1 1 0 0 0 1 1 1 2 2
1 3 6 7 9 11 12 14 17 17 17 17 18 19 19 18 18 17 16 15 14 13 12 11 10 10 10 10 9 9 9 8 7 6 6 5 4 3 1 1 1 0 0 1 1 1 2 3 3
1 1 3 5 8 9 10 12 15 16 17 17 17 17 18 18 18 17 17 16 15 14 13 12 11 10 10 10 9 9 9 8 7 7 6 6 5 4 2 1 1 1 1 1 1 2 3 3 3
3 2 3 4 5 6 7 10 12 14 16 16 16 15 17 17 17 17 17 16 15 14 13 12 12 11 11 10 10 9 9 8 8 7 7 6 6 6 5 3 2 2 2 2 2 3 4 4 5
5 4 4 3 5 5 5 7 9 12 13 14 15 15 15 15 15 16 16 16 15 15 14 13 13 12 12 11 11 10 9 9 8 8 8 7 7 6 6 5 4 3 4 4 4 4 5 6 6
7 7 6 4 5 6 6 8 7 9 10 12 14 14 14 14 15 15 15 15 14 14 14 13 13 13 13 12 12 11 11 10 10 10 9 9 8 7 7 7 6 5 5 5 5 5 6 7 7
9 8 8 6 6 6 6 9 7 7 9 10 11 12 13 14 15 14 14 14 13 13 14 13 13 13 13 13 12 12 12 12 11 10 10 10 9 9 8 8 7 7 6 5 6 6 7 7 8
11 10 9 7 7 7 7 11 8 4 6 8 10 11 12 13 14 14 14 13 12 12 12 12 13 13 13 13 13 12 11 11 11 10 10 10 10 10 10 9 9 8 8 7 7 8 8 8 9
13 10 8 8 9 8 6 11 10 7 6 8 7 9 10 12 13 13 13 13 12 11 11 11 11 12 12 12 12 12 12 11 10 10 10 10 10 10 10 11 10 9 8 8 8 8 9 10 10
14 11 10 10 11 10 9 9 10 8 6 7 7 7 8 10 11 13 13 13 12 11 10 11 11 11 11 12 12 12 12 11 11 11 11 11 11 11 11 11 11 10 9 9 9 10 10 10 11
15 14 14 13 13 11 11 10 9 9 7 6 7 7 8 9 10 12 13 12 11 10 10 10 10 10 11 11 11 12 12 12 12 12 12 12 11 12 12 12 12 12 11 10 10 11 11 11 12
17 17 15 16 15 15 13 9 9 10 9 8 9 7 8 8 8 10 11 11 10 10 9 9 10 10 10 11 11 11 12 12 12 12 13 13 13 13 13 13 14 13 13 13 12 12 12 12 12
19 17 15 16 16 14 12 11 11 10 7 9 10 9 8 9 8 9 11 11 10 10 10 10 10 10 10 10 11 11 12 12 12 11 12 14 15 15 15 15 15 15 15 14 14 14 14 14 14
20 19 19 18 16 14 14 14 12 12 10 8 10 11 9 9 9 8 10 10 9 9 10 10 11 10 10 11 11 12 12 12 12 13 13 14 15 16 17 17 16 16 16 16 16 15 15 15 15
21 20 19 19 19 17 16 17 12 10 10 10 10 12 10 10 9 9 9 9 9 9 11 11 11 11 11 11 12 12 13 13 13 13 15 15 16 18 18 18 18 17 17 17 17 16 16 16 16
Wind_Direction
63 62 58 52 48 44 42 43 41 42 44 45 46 43 38 39 36 30 34 40 43 46 44 48 46 42 42 37 41 48 62 81 98 103 101 105 108 106 104 107 107 108 114 121 120 124 122 121 125
66 63 57 49 41 38 38 41 43 44 46 46 45 42 39 41 41 38 38 42 43 45 44 46 41 38 40 43 55 58 59 69 82 92 96 98 102 108 108 103 103 103 106 116 121 121 116 121 126
69 63 58 41 28 35 39 40 44 45 44 45 44 42 41 39 41 40 40 40 44 48 47 48 44 43 44 48 57 66 67 70 82 89 91 97 103 107 110 103 99 103 106 114 116 115 115 119 122
62 58 54 37 36 39 42 42 46 47 43 43 43 44 42 40 38 39 43 44 45 47 47 50 48 49 49 51 59 70 73 81 94 91 95 100 109 113 107 101 96 99 104 109 114 116 120 126 123
61 55 42 35 38 43 44 45 44 45 44 45 46 44 43 42 41 41 45 47 47 48 48 49 49 48 49 50 55 65 77 91 99 98 99 102 112 115 111 104 102 101 103 107 111 115 119 121 121
61 51 34 37 40 42 46 47 46 43 41 45 46 43 43 44 43 43 45 45 44 45 47 47 45 46 49 53 58 64 79 92 97 103 108 108 107 109 109 107 106 105 106 107 108 115 117 121 123
62 53 38 36 41 45 48 45 46 45 42 42 43 42 42 40 42 43 42 43 44 44 45 47 41 41 44 50 62 71 82 90 99 103 101 107 109 107 111 109 109 108 107 109 106 108 114 120 121
64 53 40 36 40 44 45 45 46 46 44 42 40 41 40 38 39 40 42 42 40 39 40 43 42 40 40 42 48 59 89 98 102 102 103 106 110 111 114 114 109 109 110 111 109 105 104 110 109
61 55 42 39 40 41 43 46 46 46 44 44 41 40 39 36 37 39 40 41 40 37 36 37 41 43 44 45 45 61 89 99 99 102 104 108 113 115 119 118 116 112 110 114 116 113 108 111 112
54 57 48 45 44 43 43 44 44 42 43 44 42 41 39 37 37 38 39 40 39 38 37 38 40 42 45 49 50 66 88 94 93 104 103 106 118 116 122 121 118 115 113 114 117 119 110 113 116
44 53 50 47 44 43 43 42 40 40 40 41 40 40 38 37 40 40 37 39 39 38 38 37 36 36 45 51 50 54 72 87 91 98 111 105 111 127 126 124 119 118 115 114 115 112 115 111 118
51 54 50 44 44 43 44 42 39 38 39 40 39 40 40 38 38 40 39 39 38 39 39 40 39 39 41 43 44 44 59 71 66 66 132 120 116 130 131 124 118 122 122 121 124 115 119 122 126
50 50 49 45 44 43 45 42 40 39 37 39 41 40 40 40 40 41 41 39 38 38 38 38 39 40 38 38 44 50 54 66 71 66 73 120 141 132 125 131 135 138 138 132 131 139 138 127 117
56 51 51 43 39 37 39 41 38 38 37 38 41 40 38 38 38 39 39 38 38 37 37 38 39 40 39 37 41 51 55 60 67 66 77 104 120 119 107 120 139 166 173 167 158 165 167 166 173
68 45 44 35 31 30 37 38 36 33 36 38 40 40 38 38 38 38 39 40 41 41 40 40 40 41 42 42 44 50 51 52 57 55 54 74 110 114 93 93 138 181 215 193 189 190 217 233 250
76 26 28 27 23 22 29 32 32 31 33 37 39 39 39 38 37 38 39 40 41 42 42 43 42 42 43 44 47 50 52 56 56 56 55 58 76 93 100 69 51 142 186 194 207 232 255 259 270
89 11 354 4 16 17 23 23 27 28 32 37 36 35 37 37 36 38 39 40 41 41 41 41 41 41 41 42 45 48 50 51 52 53 53 55 58 64 80 51 51 127 211 278 274 276 278 285 288
153 352 320 344 359 6 13 19 24 26 26 31 33 31 33 35 37 37 38 38 39 39 39 40 40 40 39 40 43 45 46 47 47 49 53 56 51 46 42 21 20 18 295 292 296 303 299 293 292
233 191 284 316 337 2 10 8 20 24 22 25 28 30 31 33 35 36 37 37 37 37 39 41 44 45 44 42 43 43 46 47 46 47 49 47 40 36 35 23 20 12 340 316 307 307 311 307 300
236 234 243 285 318 349 341 345 4 16 17 17 19 26 29 29 31 34 35 36 38 38 40 42 44 46 46 45 43 44 50 50 45 44 43 40 37 32 28 22 13 359 344 330 316 310 312 312 306
227 249 246 259 303 313 322 323 345 10 10 10 14 21 27 26 27 30 32 34 37 39 41 43 43 43 43 43 43 43 44 46 44 42 41 36 32 27 23 12 8 352 339 332 320 313 310 309 305
219 229 242 254 277 281 290 300 320 9 360 2 6 14 21 24 24 25 27 30 35 38 40 43 43 43 43 42 42 43 43 42 41 40 36 31 25 21 15 7 0 350 344 335 321 313 309 309 308
230 226 232 242 265 277 295 297 304 348 349 359 356 13 17 19 21 22 23 24 29 35 38 38 38 40 41 39 38 38 38 38 37 35 31 26 20 15 10 3 354 348 343 336 326 313 307 306 307
230 233 238 242 252 260 267 285 298 310 325 340 360 17 13 15 16 18 19 21 23 28 31 33 34 36 36 35 34 33 32 31 31 30 26 22 17 11 6 2 356 348 339 335 329 321 308 303 302
228 228 244 255 257 249 243 259 276 292 316 326 346 359 6 8 9 10 15 16 18 21 25 28 31 32 32 32 31 30 29 30 28 24 20 16 13 10 5 1 355 349 339 331 327 322 316 306 300
229 225 238 251 257 257 243 244 252 276 294 310 323 338 345 351 1 5 6 7 10 12 16 20 24 25 25 24 25 26 24 24 22 19 17 13 9 5 1 357 352 348 343 335 328 322 316 309 303
224 231 240 253 266 274 268 255 262 271 286 299 306 311 320 330 343 354 358 1 4 7 9 10 14 16 17 18 17 16 15 14 13 13 12 9 4 360 355 352 349 347 342 337 331 326 321 315 309
222 226 235 246 254 262 264 268 264 260 272 292 299 304 309 320 330 347 351 356 360 2 3 4 5 6 8 9 7 5 5 3 1 2 2 3 1 357 352 346 344 341 338 335 331 326 321 316 310
227 226 228 235 242 259 269 264 263 275 274 274 289 294 298 306 321 333 344 347 350 353 355 355 355 356 356 357 358 357 356 355 352 352 353 353 354 351 349 345 340 335 333 333 331 327 324 318 313
227 230 235 238 237 242 262 267 268 281 284 280 289 292 297 298 308 318 325 332 337 342 348 351 348 347 346 347 350 351 349 347 347 345 347 348 347 346 347 345 340 335 333 331 330 326 324 320 316
Height
5895 5893 5891 5890 5889 5891 5888 5888 5886 5884 5883 5882 5881 5880 5878 5878 5878 5879 5875 5873 5873 5873 5872 5872 5871 5871 5871 5870 5869 5869 5869 5869 5869 5869 5868 5868 5869 5869 5869 5870 5871 5872 5873 5873 5874 5875 5876 5877 5878
5898 5896 5892 5891 5894 5893 5891 5890 5888 5887 5885 5883 5882 5881 5880 5879 5878 5877 5876 5875 5874 5874 5873 5873 5872 5872 5872 5871 5871 5871 5871 5870 5870 5870 5870 5870 5870 5871 5871 5872 5873 5874 5874 5875 5876 5876 5878 5879 5880
5900 5896 5894 5899 5897 5895 5894 5892 5890 5888 5887 5885 5884 5883 5882 5881 5879 5878 5877 5876 5875 5875 5874 5874 5873 5873 5873 5873 5873 5873 5872 5872 5871 5871 5871 5871 5872 5872 5873 5874 5875 5875 5876 5877 5877 5878 5879 5881 5882
5900 5896 5901 5904 5900 5898 5896 5894 5892 5891 5889 5887 5886 5885 5883 5882 5881 5880 5879 5878 5877 5876 5876 5875 5875 5875 5874 5874 5874 5874 5874 5873 5873 5873 5873 5873 5873 5874 5875 5875 5876 5877 5877 5878 5879 5880 5881 5882 5883
5900 5903 5908 5906 5902 5901 5898 5896 5895 5893 5891 5889 5888 5886 5885 5883 5882 5881 5880 5879 5878 5878 5877 5876 5876 5876 5876 5876 5875 5875 5875 5875 5875 5874 5875 5875 5875 5875 5876 5877 5878 5878 5879 5880 5881 5881 5882 5884 5885
5905 5911 5911 5908 5906 5904 5901 5899 5897 5895 5893 5892 5890 5888 5887 5885 5884 5883 5881 5881 5880 5879 5878 5878 5877 5877 5877 5877 5877 5876 5876 5876 5876 5876 5876 5876 5876 5877 5877 5878 5879 5880 5881 5881 5882 5883 5884 5885 5886
5913 5915 5914 5911 5909 5907 5904 5902 5900 5898 5896 5894 5892 5891 5889 5887 5886 5884 5883 5882 5882 5881 5880 5879 5879 5878 5878 5878 5878 5878 5878 5878 5878 5878 5877 5878 5878 5878 5879 5880 5880 5881 5882 5883 5884 5884 5885 5886 5887
5918 5919 5917 5914 5912 5909 5907 5905 5902 5900 5898 5896 5894 5893 5891 5890 5888 5886 5885 5884 5883 5882 5881 5881 5880 5879 5879 5879 5879 5879 5879 5879 5879 5879 5879 5879 5880 5880 5881 5881 5882 5883 5883 5884 5885 5886 5886 5887 5888
5922 5923 5920 5917 5915 5912 5909 5907 5905 5903 5901 5899 5897 5895 5893 5892 5890 5888 5887 5886 5885 5884 5883 5882 5881 5881 5880 5880 5880 5880 5880 5880 5880 5880 5881 5881 5881 5882 5882 5883 5883 5884 5885 5886 5886 5887 5887 5888 5889
5925 5924 5922 5920 5917 5915 5912 5910 5907 5905 5903 5901 5899 5898 5896 5894 5892 5890 5889 5888 5887 5886 5885 5884 5883 5882 5881 5881 5881 5881 5881 5881 5881 5882 5882 5882 5882 5883 5883 5884 5885 5885 5886 5887 5887 5888 5888 5889 5890
5927 5926 5924 5922 5919 5917 5914 5912 5910 5908 5906 5904 5902 5900 5898 5896 5894 5892 5891 5890 5889 5888 5886 5885 5884 5883 5883 5882 5882 5882 5882 5882 5882 5883 5883 5883 5883 5884 5885 5885 5886 5886 5887 5887 5888 5889 5889 5889 5890
5930 5928 5926 5924 5921 5919 5917 5915 5913 5911 5909 5907 5904 5902 5900 5898 5896 5895 5893 5892 5891 5889 5888 5887 5886 5885 5884 5884 5883 5883 5883 5883 5883 5883 5883 5884 5884 5885 5885 5886 5886 5887 5888 5888 5889 5889 5890 5890 5891
5932 5930 5928 5926 5924 5922 5920 5918 5916 5914 5911 5909 5907 5904 5903 5900 5898 5897 5895 5894 5892 5891 5890 5889 5888 5887 5886 5885 5884 5884 5884 5884 5884 5884 5884 5885 5885 5886 5886 5886 5887 5888 5888 5889 5889 5890 5891 5891 5891
5933 5931 5930 5929 5927 5924 5922 5920 5918 5916 5914 5912 5909 5907 5905 5902 5900 5899 5897 5896 5894 5893 5892 5891 5890 5889 5888 5887 5886 5885 5885 5885 5885 5885 5885 5885 5886 5886 5887 5887 5888 5888 5889 5889 5889 5890 5891 5891 5891
5933 5932 5931 5931 5929 5927 5925 5923 5921 5919 5917 5914 5912 5909 5907 5905 5903 5901 5899 5898 5896 5895 5894 5893 5892 5890 5889 5888 5887 5887 5886 5886 5886 5886 5886 5886 5886 5886 5887 5887 5888 5888 5889 5889 5890 5890 5891 5891 5891
5933 5932 5932 5932 5931 5929 5928 5926 5924 5922 5919 5917 5914 5912 5910 5908 5906 5903 5901 5900 5898 5897 5896 5895 5893 5892 5891 5890 5889 5888 5888 5888 5887 5887 5887 5887 5887 5887 5887 5888 5888 5888 5889 5889 5890 5890 5890 5891 5891
5933 5933 5934 5933 5933 5932 5930 5927 5926 5924 5922 5919 5917 5915 5913 5911 5908 5906 5904 5902 5900 5899 5898 5897 5895 5894 5893 5892 5891 5890 5890 5889 5889 5888 5888 5888 5887 5887 5888 5888 5888 5888 5889 5889 5890 5890 5890 5890 5890
5935 5936 5936 5935 5935 5934 5932 5929 5929 5926 5924 5921 5919 5917 5915 5913 5911 5909 5907 5905 5903 5902 5900 5899 5897 5896 5895 5894 5893 5892 5891 5891 5890 5889 5889 5889 5889 5888 5888 5888 5888 5889 5889 5889 5889 5889 5889 5889 5890
5936 5938 5938 5937 5937 5935 5934 5932 5930 5928 5926 5924 5922 5920 5917 5915 5913 5911 5909 5907 5906 5904 5902 5901 5899 5898 5897 5896 5895 5894 5893 5892 5891 5891 5890 5890 5889 5889 5889 5888 5889 5889 5889 5889 5889 5889 5889 5889 5889
5936 5938 5937 5937 5937 5936 5934 5932 5931 5929 5928 5927 5924 5921 5920 5918 5916 5914 5912 5910 5908 5906 5905 5903 5902 5900 5899 5898 5896 5895 5894 5894 5893 5892 5891 5891 5890 5890 5889 5889 5889 5889 5889 5889 5888 5888 5888 5888 5888
5935 5937 5937 5937 5937 5936 5934 5933 5931 5930 5929 5928 5926 5923 5922 5920 5918 5916 5914 5912 5910 5909 5907 5905 5904 5903 5901 5900 5898 5897 5896 5895 5894 5893 5892 5892 5891 5890 5890 5890 5889 5889 5889 5888 5888 5888 5887 5887 5887
5934 5936 5936 5937 5937 5936 5934 5932 5930 5929 5929 5928 5926 5924 5922 5921 5919 5917 5916 5914 5912 5911 5909 5907 5906 5904 5903 5902 5900 5899 5898 5897 5896 5895 5894 5893 5892 5891 5891 5890 5890 5889 5888 5888 5887 5887 5886 5886 5885
5932 5933 5934 5935 5935 5934 5933 5932 5929 5927 5928 5928 5927 5924 5923 5922 5920 5919 5917 5916 5914 5913 5911 5910 5908 5907 5905 5904 5902 5901 5899 5898 5897 5896 5895 5894 5893 5892 5891 5890 5889 5888 5888 5887 5886 5886 5885 5884 5884
5930 5932 5933 5933 5934 5934 5934 5933 5929 5927 5927 5928 5927 5925 5925 5923 5922 5920 5918 5917 5915 5914 5913 5912 5910 5909 5907 5906 5904 5902 5901 5900 5899 5898 5896 5895 5894 5893 5892 5890 5889 5888 5887 5886 5885 5884 5883 5882 5882
5928 5931 5932 5932 5931 5931 5931 5931 5930 5927 5927 5928 5927 5926 5925 5924 5923 5921 5918 5918 5917 5916 5914 5913 5912 5910 5909 5907 5906 5904 5902 5901 5900 5898 5897 5896 5894 5893 5892 5890 5889 5887 5886 5885 5884 5883 5882 5881 5880
5926 5929 5931 5930 5929 5928 5927 5928 5928 5927 5927 5926 5927 5926 5926 5925 5923 5922 5921 5919 5918 5917 5915 5914 5913 5911 5910 5909 5907 5905 5904 5902 5901 5899 5898 5896 5895 5893 5892 5890 5888 5886 5885 5883 5882 5881 5879 5878 5877
5923 5925 5928 5929 5928 5927 5925 5925 5926 5925 5925 5926 5926 5926 5925 5924 5923 5922 5921 5919 5918 5917 5916 5915 5913 5912 5911 5909 5908 5907 5905 5903 5902 5900 5899 5897 5895 5894 5892 5890 5888 5886 5884 5882 5880 5879 5877 5876 5875
5919 5923 5925 5926 5926 5925 5925 5924 5923 5923 5922 5925 5925 5924 5923 5923 5922 5921 5921 5919 5918 5917 5916 5915 5914 5913 5911 5910 5909 5907 5906 5904 5902 5901 5899 5897 5895 5893 5891 5889 5887 5885 5883 5881 5879 5877 5875 5874 5872
5916 5919 5921 5922 5924 5924 5923 5923 5920 5920 5920 5920 5922 5921 5921 5921 5921 5920 5920 5919 5918 5917 5916 5915 5914 5913 5911 5910 5909 5907 5906 5904 5902 5901 5899 5897 5895 5892 5890 5887 5885 5883 5881 5879 5877 5875 5873 5871 5870
5912 5915 5918 5919 5920 5921 5922 5921 5917 5917 5919 5918 5919 5919 5918 5919 5919 5918 5918 5918 5917 5917 5916 5915 5913 5912 5911 5910 5908 5907 5906 5904 5902 5900 5899 5897 5894 5892 5889 5886 5883 5881 5879 5877 5875 5873 5871 5869 5867